When you browse on this site, cookies collect data to enhance your experience and personalize the content and advertising you see.
Visit our Privacy Policy to learn more. By continuing to use the site, you agree to this use of cookies and data.
  • en France
  • Liste des pays
  • À 7 jours
  • Température de l'eau
  • Carte satellitaire
  • Carte météo
  • Widgets météo
  • user-avatar
    Se connecter

    Météo par heure à Ghazni

    Ce jour, 24 Janvier, Jeudi

    Heure Température Précipitation Vent Pression Humidité
    00:00 -9°C° 0 mm 2 m/s 584 mmHg 63%
    01:00 -9°C° 0 mm 2 m/s 584 mmHg 62%
    02:00 -9°C° 0 mm 2 m/s 584 mmHg 61%
    03:00 -9°C° 0 mm 2 m/s 584 mmHg 59%
    04:00 -10°C° 0 mm 2 m/s 584 mmHg 58%
    05:00 -10°C° 0 mm 2 m/s 584 mmHg 56%
    06:00 -10°C° 0 mm 2 m/s 584 mmHg 55%
    07:00 -10°C° 0 mm 2 m/s 584 mmHg 54%
    08:00 -10°C° 0 mm 2 m/s 585 mmHg 53%
    09:00 -9°C° 0 mm 2 m/s 585 mmHg 50%
    10:00 -7°C° 0 mm 2 m/s 586 mmHg 47%
    11:00 -6°C° 0 mm 2 m/s 586 mmHg 44%
    12:00 -5°C° 0 mm 2 m/s 585 mmHg 44%
    13:00 -4°C° 0 mm 2 m/s 585 mmHg 44%
    14:00 -4°C° 0 mm 2 m/s 584 mmHg 44%
    15:00 -4°C° 0 mm 2 m/s 584 mmHg 47%
    16:00 -5°C° 0 mm 2 m/s 584 mmHg 50%
    17:00 -5°C° 0 mm 2 m/s 584 mmHg 53%
    18:00 -6°C° 0 mm 2 m/s 584 mmHg 55%
    19:00 -7°C° 0 mm 2 m/s 584 mmHg 56%
    20:00 -8°C° 0 mm 2 m/s 585 mmHg 57%
    21:00 -9°C° 0 mm 2 m/s 585 mmHg 55%
    22:00 -9°C° 0 mm 2 m/s 585 mmHg 53%
    23:00 -9°C° 0 mm 2 m/s 585 mmHg 52%

    Demain, 25 Janvier, Vendredi

    Heure Température Précipitation Vent Pression Humidité
    00:00 -9°C° 0 mm 2 m/s 585 mmHg 50%
    01:00 -10°C° 0 mm 2 m/s 584 mmHg 48%
    02:00 -10°C° 0 mm 2 m/s 584 mmHg 46%
    03:00 -10°C° 0 mm 2 m/s 584 mmHg 45%
    04:00 -10°C° 0 mm 2 m/s 584 mmHg 44%
    05:00 -12°C° 0 mm 2 m/s 583 mmHg 42%
    06:00 -12°C° 0 mm 2 m/s 584 mmHg 42%
    07:00 -12°C° 0 mm 2 m/s 584 mmHg 42%
    08:00 -12°C° 0 mm 2 m/s 584 mmHg 42%
    09:00 -9°C° 0 mm 2 m/s 584 mmHg 40%
    10:00 -8°C° 0 mm 2 m/s 584 mmHg 38%
    11:00 -6°C° 0 mm 2 m/s 585 mmHg 36%
    12:00 -5°C° 0 mm 2 m/s 584 mmHg 36%
    13:00 -4°C° 0 mm 2 m/s 584 mmHg 37%
    14:00 -3°C° 0 mm 2 m/s 583 mmHg 37%
    15:00 -2°C° 0 mm 1 m/s 583 mmHg 41%
    16:00 -3°C° 0 mm 1 m/s 583 mmHg 44%
    17:00 -3°C° 0 mm 1 m/s 583 mmHg 47%
    18:00 -4°C° 0 mm 1 m/s 583 mmHg 48%
    19:00 -6°C° 0 mm 1 m/s 584 mmHg 49%
    20:00 -8°C° 0 mm 2 m/s 584 mmHg 50%
    21:00 -8°C° 0 mm 2 m/s 584 mmHg 50%
    22:00 -8°C° 0 mm 2 m/s 584 mmHg 49%
    23:00 -9°C° 0 mm 2 m/s 585 mmHg 49%

    Après-demain, 26 Janvier, Samedi

    Heure Température Précipitation Vent Pression Humidité
    00:00 -9°C° 0 mm 2 m/s 584 mmHg 49%
    01:00 -9°C° 0 mm 2 m/s 584 mmHg 48%
    02:00 -9°C° 0 mm 2 m/s 584 mmHg 47%
    03:00 -9°C° 0 mm 2 m/s 584 mmHg 47%
    04:00 -9°C° 0 mm 2 m/s 584 mmHg 47%
    05:00 -9°C° 0 mm 2 m/s 584 mmHg 47%
    06:00 -9°C° 0 mm 2 m/s 584 mmHg 47%
    07:00 -9°C° 0 mm 2 m/s 585 mmHg 46%
    08:00 -9°C° 0 mm 2 m/s 585 mmHg 46%
    09:00 -8°C° 0 mm 2 m/s 585 mmHg 43%
    10:00 -7°C° 0 mm 2 m/s 586 mmHg 40%
    11:00 -5°C° 0 mm 2 m/s 586 mmHg 36%
    12:00 -5°C° 0 mm 2 m/s 586 mmHg 37%
    13:00 -4°C° 0 mm 2 m/s 585 mmHg 37%
    14:00 -3°C° 0 mm 2 m/s 585 mmHg 38%
    15:00 -4°C° 0 mm 2 m/s 585 mmHg 42%
    16:00 -4°C° 0 mm 2 m/s 585 mmHg 45%
    17:00 -4°C° 0 mm 2 m/s 584 mmHg 49%
    18:00 -5°C° 0 mm 2 m/s 585 mmHg 51%
    19:00 -5°C° 0 mm 2 m/s 585 mmHg 53%
    20:00 -6°C° 0 mm 2 m/s 585 mmHg 55%
    21:00 -6°C° 0 mm 2 m/s 586 mmHg 56%
    22:00 -6°C° 0 mm 2 m/s 586 mmHg 57%
    23:00 -7°C° 0 mm 2 m/s 586 mmHg 58%

    27 Janvier, Dimanche

    Heure Température Précipitation Vent Pression Humidité
    00:00 -7°C° 0 mm 2 m/s 586 mmHg 59%
    01:00 -7°C° 0 mm 2 m/s 586 mmHg 60%
    02:00 -7°C° 0 mm 2 m/s 585 mmHg 60%
    03:00 -8°C° 0 mm 2 m/s 585 mmHg 61%
    04:00 -8°C° 0 mm 2 m/s 585 mmHg 61%
    05:00 -8°C° 0 mm 2 m/s 585 mmHg 61%
    06:00 -8°C° 0 mm 2 m/s 585 mmHg 61%
    07:00 -8°C° 0 mm 2 m/s 586 mmHg 61%
    08:00 -8°C° 0 mm 2 m/s 586 mmHg 61%
    09:00 -7°C° 0 mm 2 m/s 586 mmHg 57%
    10:00 -5°C° 0 mm 2 m/s 587 mmHg 54%
    11:00 -2°C° 0 mm 1 m/s 587 mmHg 50%
    12:00 -1°C° 0 mm 1 m/s 587 mmHg 50%
    13:00 -2°C° 0 mm 2 m/s 586 mmHg 50%
    14:00 -1°C° 0 mm 2 m/s 586 mmHg 49%
    15:00 0°C° 0 mm 1 m/s 585 mmHg 52%
    16:00 0°C° 0 mm 1 m/s 585 mmHg 54%
    17:00 0°C° 0 mm 1 m/s 585 mmHg 56%
    18:00 -1°C° 0 mm 1 m/s 585 mmHg 57%
    19:00 -2°C° 0 mm 1 m/s 586 mmHg 58%
    20:00 -3°C° 0 mm 1 m/s 586 mmHg 59%
    21:00 -3°C° 0 mm 1 m/s 586 mmHg 58%
    22:00 -3°C° 0 mm 1 m/s 586 mmHg 57%
    23:00 -5°C° 0 mm 2 m/s 587 mmHg 55%

    28 Janvier, Lundi

    Heure Température Précipitation Vent Pression Humidité
    00:00 -5°C° 0 mm 2 m/s 587 mmHg 55%
    01:00 -6°C° 0 mm 2 m/s 586 mmHg 54%
    02:00 -6°C° 0 mm 2 m/s 586 mmHg 54%
    03:00 -6°C° 0 mm 2 m/s 586 mmHg 54%
    04:00 -6°C° 0 mm 2 m/s 586 mmHg 54%
    05:00 -6°C° 0 mm 2 m/s 586 mmHg 54%
    06:00 -6°C° 0 mm 2 m/s 586 mmHg 54%
    07:00 -6°C° 0 mm 2 m/s 587 mmHg 54%
    08:00 -6°C° 0 mm 2 m/s 587 mmHg 53%
    09:00 -2°C° 0 mm 1 m/s 587 mmHg 51%
    10:00 -1°C° 0 mm 1 m/s 587 mmHg 48%
    11:00 +1°C° 0 mm 1 m/s 588 mmHg 46%
    12:00 +2°C° 0 mm 1 m/s 587 mmHg 45%
    13:00 +3°C° 0 mm 1 m/s 587 mmHg 45%
    14:00 +3°C° 0 mm 2 m/s 586 mmHg 44%
    15:00 +3°C° 0 mm 1 m/s 586 mmHg 46%
    16:00 +3°C° 0 mm 1 m/s 586 mmHg 49%
    17:00 +2°C° 0 mm 1 m/s 585 mmHg 51%
    18:00 +1°C° 0 mm 1 m/s 585 mmHg 51%
    19:00 0°C° 0 mm 1 m/s 586 mmHg 51%
    20:00 0°C° 0 mm 1 m/s 586 mmHg 52%
    21:00 0°C° 0 mm 1 m/s 586 mmHg 51%
    22:00 0°C° 0 mm 1 m/s 586 mmHg 51%
    23:00 0°C° 0 mm 1 m/s 586 mmHg 51%

    29 Janvier, Mardi

    Heure Température Précipitation Vent Pression Humidité
    00:00 0°C° 0 mm 1 m/s 586 mmHg 51%
    01:00 0°C° 0 mm 1 m/s 585 mmHg 52%
    02:00 0°C° 0 mm 1 m/s 585 mmHg 52%
    03:00 0°C° 0 mm 1 m/s 585 mmHg 53%
    04:00 -1°C° 0 mm 1 m/s 584 mmHg 54%
    05:00 -1°C° 0 mm 1 m/s 584 mmHg 55%
    06:00 -1°C° 0 mm 1 m/s 584 mmHg 56%
    07:00 -1°C° 0 mm 1 m/s 584 mmHg 56%
    08:00 -1°C° 0 mm 1 m/s 584 mmHg 57%
    09:00 +1°C° 0 mm 1 m/s 584 mmHg 54%
    10:00 +2°C° 0 mm 1 m/s 585 mmHg 52%
    11:00 +4°C° 0 mm 1 m/s 585 mmHg 49%
    12:00 +5°C° 0 mm 1 m/s 585 mmHg 49%
    13:00 +4°C° 0 mm 2 m/s 584 mmHg 48%
    14:00 +5°C° 0 mm 2 m/s 584 mmHg 48%
    15:00 +5°C° 0 mm 2 m/s 584 mmHg 52%
    16:00 +4°C° 0 mm 2 m/s 583 mmHg 55%
    17:00 +4°C° 0 mm 2 m/s 583 mmHg 59%
    18:00 +3°C° 0.1 mm 2 m/s 583 mmHg 63%
    19:00 +2°C° 0.1 mm 2 m/s 583 mmHg 67%
    20:00 +2°C° 0.1 mm 2 m/s 583 mmHg 71%
    21:00 +1°C° 0.3 mm 2 m/s 583 mmHg 75%
    22:00 +2°C° 0.3 mm 1 m/s 583 mmHg 78%
    23:00 +2°C° 0.3 mm 1 m/s 583 mmHg 82%
    Voir plus